Погода в Центральной усадьбе совхоза имени Калинина

Россия / Пензенская область     53°08′49″N   44°05′49″E
темп.,
°C
ветер,
м/с
пор.,
м/с
влажн.,
%
обл.,
%
осадки,
мм/ч
давл.,
гПа
погр.,
м
26 июля, пн
пн2600:00+14сз11681 0.0 102310
03:00+13ссз11695 0.0 102310
06:00+15ссз11685 0.0 102437
09:00+20ссз11475 0.0 1024494
12:00+23зсз23395 0.0 10242258
15:00+23зсз1341100 0.0 10231557
18:00+22юз225598 0.0 102246
21:00+19ююз225427 0.0 102212
27 июля, вт
вт2700:00+18ююз225299 0.0 102239
03:00+17зюз2556100 0.0 1022108
06:00+16з23725 0.0 102296
09:00+22сз23515 0.0 1022498
12:00+25зсз34415 0.0 10211881
15:00+24зсз465218 0.0 1020319
18:00+24сз245696 0.0 1019456
21:00+19зсз23662 0.0 102043
28 июля, ср
ср2800:00+17сз22714 0.0 102012
03:00+16сз11732 0.0 101911
06:00+18ссз11692 0.0 102040
09:00+23ююз22534 0.0 1019441
12:00+26зюз34430 0.0 10181826
15:00+27зюз343716 0.0 10172514
18:00+25ююз3552100 0.0 1015132
21:00+21ююз355652 0.0 101460
29 июля, чт
чт2900:00+19ююз3758100 0.0 1014112
03:00+20зюз41160100 0.0 1012407
06:00+19ююв41168100 0.3 1010262
09:00+23зюз711606 0.7 1009827
12:00+27з795219 0.0 10081820
15:00+25зюз595799 0.0 1008383
18:00+25з47565 0.0 1008389
21:00+23з5125697 0.0 1008418
30 июля, пт
пт3000:00+20з4106995 0.0 1009186
03:00+18з35763 0.0 100984
06:00+20зюз24755 0.0 1009121
09:00+25зюз4557100 0.0 1009589
12:00+28зюз564675 0.0 10082079
15:00+22с3478100 0.1 1008115
18:00+23св227319 0.5 100820
21:00+20с11820 0.5 100811